TimeCST,TemperatureF,Dew PointF,Humidity,Sea Level PressureIn,VisibilityMPH,Wind Direction,Wind SpeedMPH,Gust SpeedMPH,PrecipitationIn,Events,Conditions,WindDirDegrees,DateUTC
12:52 AM,34.0,33.1,96,30.29,10.0,Calm,Calm,-,N/A,,Overcast,0,2012-11-05 06:52:00
1:41 AM,33.8,32.0,93,30.21,10.0,Calm,Calm,-,N/A,,Overcast,0,2012-11-05 07:41:00
1:52 AM,34.0,32.0,92,30.27,10.0,Calm,Calm,-,N/A,,Overcast,0,2012-11-05 07:52:00
2:52 AM,33.1,32.0,96,30.25,10.0,SW,4.6,-,N/A,,Overcast,230,2012-11-05 08:52:00
3:52 AM,33.1,32.0,96,30.23,10.0,South,6.9,-,N/A,,Overcast,190,2012-11-05 09:52:00
4:52 AM,33.1,32.0,96,30.21,10.0,South,6.9,-,N/A,,Overcast,180,2012-11-05 10:52:00
5:52 AM,33.1,33.1,100,30.18,10.0,South,6.9,-,N/A,,Overcast,180,2012-11-05 11:52:00
6:07 AM,33.8,33.8,100,30.10,8.0,South,8.1,-,N/A,,Overcast,190,2012-11-05 12:07:00
6:52 AM,33.1,33.1,100,30.14,10.0,South,8.1,-,N/A,,Overcast,180,2012-11-05 12:52:00
7:52 AM,34.0,34.0,100,30.09,9.0,SSE,6.9,-,N/A,,Overcast,160,2012-11-05 13:52:00
8:52 AM,34.0,34.0,100,30.06,8.0,South,8.1,-,N/A,,Overcast,170,2012-11-05 14:52:00
9:27 AM,35.6,33.8,93,29.97,10.0,South,5.8,-,N/A,,Overcast,170,2012-11-05 15:27:00
9:52 AM,36.0,34.0,93,30.00,10.0,South,9.2,-,N/A,,Mostly Cloudy,170,2012-11-05 15:52:00
10:52 AM,37.9,36.0,93,29.96,10.0,South,8.1,-,N/A,,Mostly Cloudy,190,2012-11-05 16:52:00
11:52 AM,41.0,37.0,86,29.92,10.0,South,8.1,-,N/A,,Overcast,190,2012-11-05 17:52:00
12:52 PM,44.1,39.0,82,29.85,10.0,SSW,9.2,-,0.00,Rain,Light Rain,210,2012-11-05 18:52:00
1:52 PM,46.0,39.0,76,29.80,10.0,SW,13.8,-,0.00,,Overcast,220,2012-11-05 19:52:00
2:52 PM,48.0,39.9,74,29.76,10.0,SW,15.0,-,N/A,,Overcast,220,2012-11-05 20:52:00
3:52 PM,60.1,45.0,57,29.76,10.0,West,19.6,32.2,N/A,,Mostly Cloudy,280,2012-11-05 21:52:00
4:52 PM,50.0,41.0,71,29.84,10.0,NW,31.1,42.6,N/A,,Partly Cloudy,310,2012-11-05 22:52:00
5:52 PM,43.0,37.0,80,29.94,10.0,NNW,24.2,31.1,N/A,,Partly Cloudy,330,2012-11-05 23:52:00
6:52 PM,42.1,35.1,76,29.96,10.0,NW,19.6,25.3,N/A,,Clear,320,2012-11-06 00:52:00
7:52 PM,41.0,34.0,76,29.98,10.0,WNW,12.7,-,N/A,,Partly Cloudy,290,2012-11-06 01:52:00
8:52 PM,41.0,34.0,76,30.00,10.0,West,16.1,-,N/A,,Mostly Cloudy,280,2012-11-06 02:52:00
9:52 PM,39.9,32.0,73,30.01,10.0,West,16.1,-,N/A,,Partly Cloudy,280,2012-11-06 03:52:00
10:52 PM,39.0,28.9,67,30.01,10.0,WNW,12.7,-,N/A,,Scattered Clouds,290,2012-11-06 04:52:00
11:52 PM,37.0,28.9,73,30.05,10.0,West,16.1,-,N/A,,Clear,280,2012-11-06 05:52:00